STARLINK-38104, 100185

Orbit data source: Space-Track

STARLINK-38104, 100185 is a payload satellite owned by SpaceX/Seattle (US) in SSO that was launched on Sat, 01 Aug 2026 UTC launched from the Air Force Western Test Range (AFWTR). Payload-class satellites include a variety of spacecraft equipped with specific instruments for various scientific and technological missions. These include communications satellites like Starlink; space stations such as the ISS; scientific satellites like the Hubble; Earth observation satellites from companies like Planet Labs, Umbra, and HawkEye 360; GPS; miniature CubeSats for education and research; and military/defense satellites.

Loading next visibility...
Identifier
100185, 2026-175G
Orbit
SSO
Country
Flag of USUS
Related business
Manufacturer
SpaceX/Seattle
Mission
Operational spacecraft
Bus & Motor
STARLINK V2MO, Unknown motor
Mass
575 kg wet, ~530 kg dry
Launch date (UTC)
2026-08-01 (1 month ago)
Launch vehicle
Unknown
Launch site
Air Force Western Test Range (AFWTR)
Object type
Payload
Rocket body
Debris
Shape & HBR
BOX + PAN, 17.7 m
Radar Cross Section
Large (>1 m²)

Expand to show TLE details & history
Last TLE update: 9 hours ago

TLE from 9 hours ago
0 STARLINK-38104
1 A0185U 26175G   26249.51725056  .00126736  00000-0  83441-3 0  9997
2 A0185  97.2831  91.2420 0001375  98.5442 261.5979 15.75289725  6974
Epoch: 2026-09-06T12:24Z
TLE epoch observation values (Epoch: 2026-09-06T12:24:50.448Z)
Latitude
-0.00003°
Longitude
-80.57943°
Altitude
347.111 km
Speed
7.701 km/s
True Right ascension
06h 04m 58s
True Declination
0° 00' 00"
Sunlit
Object was in daylight at epoch
Visualization orbit readout
Latitude
Unknown
Longitude
Unknown
Altitude
Unknown
Speed
Unknown
Apparent Right ascension
Unknown
Apparent Declination
Unknown
Sunlit
N/A
Visualization observer readout
Local Sidereal Time
13:27:01
Azimuth
Unknown
Elevation
Unknown
Doppler factor
Unknown
Orbital elements
Apogee altitude
341.618 km
Perigee altitude
339.77 km
Semi-major axis
6,718.831 km
Eccentricity
0.00014
Inclination
97.2831°
RAAN
91.242°
Arg. of periapsis
98.5442°
True anomaly
261.58231°
Mean anomaly
261.5979°
Eccentric anomaly
261.59011°
Mean motion
3.94097 °/min
Orbital period
91.35 mins
BSTAR
0.00083441
Loading maneuver chart data...
Computing Atmospheric mass density...
Loading historical data...
Loading historical data...
Loading historical data...
Loading historical data...
Loading historical data...
Loading historical data...
Loading historical data...

Documentation

Showing up to 5 results
|